North Bend, OR

11:58 PM PDT on August 22, 2017 (GMT -0700)
North Bend Municipal

Weather History for KOTH - October, 2010

Change the Weather History Date:

Monday, October 18, 2010

  Actual Average Record
Temperature  
Mean Temperature 48 °F 53 °F  
Max Temperature 59 °F 61 °F 85 °F (1964)
Min Temperature 37 °F 46 °F 31 °F (1908)
Degree Days  
Heating Degree Days 17 12  
Month to date heating degree days 172 194  
Since 1 July heating degree days 845 802  
Cooling Degree Days 0 0  
Month to date cooling degree days 0 0  
Year to date cooling degree days 3 2  
Moisture  
Dew Point 41 °F    
Average Humidity 90    
Maximum Humidity 100    
Minimum Humidity 67    
Precipitation  
Precipitation 0.00 in 0.16 in 2.96 in (1990)
Month to date precipitation 0.74 2.09  
Year to date precipitation 43.83 40.91  
Sea Level Pressure  
Sea Level Pressure 30.24 in    
Wind  
Wind Speed 8 mph (East)    
Max Wind Speed 24 mph    
Max Gust Speed 30 mph    
Visibility 9 miles    
Events      
T = Trace of Precipitation, MM = Missing Value Source: NWS Daily Summary

Daily Weather History Graph

Daily Weather History Graph

Search for Another Location

Airport or City:

Trip Planner

Search our weather history database for the weather conditions in past years. The results will help you decide how hot, cold, wet, or windy it might be!

Date:

Astronomy

Oct. 18, 2010 Rise Set
Actual Time 7:34 AM PDT 6:28 PM PDT
Civil Twilight 7:05 AM PDT 6:57 PM PDT
Nautical Twilight 6:32 AM PDT 7:30 PM PDT
Astronomical Twilight 5:59 AM PDT 8:03 PM PDT
Moon 4:21 PM PDT (10/18) 3:22 AM PDT (10/18)
Length of Visible Light 11h 51m
Length of Day
10h 54m
Waxing Gibbous, 84% of the Moon is Illuminated
Oct 18
Waxing Gibbous
Oct 22
Full
Oct 30
Last Quarter
Nov 5
New
Nov 13
First Quarter

Hourly Weather History & Observations

Time (PDT) Temp. Windchill Dew Point Humidity Pressure Visibility Wind Dir Wind Speed Gust Speed Precip Events Conditions
12:15 AM 44.6 °F 43.1 °F 42.8 °F 93% 30.25 in 10.0 mi South 3.5 mph - N/A   Clear
12:35 AM 41.0 °F 36.4 °F 39.2 °F 93% 30.25 in 10.0 mi SE 6.9 mph - N/A   Clear
12:55 AM 42.8 °F 38.6 °F 42.8 °F 100% 30.25 in 10.0 mi SE 6.9 mph - N/A   Clear
1:15 AM 41.0 °F 37.1 °F 39.2 °F 93% 30.25 in 10.0 mi SSE 5.8 mph - N/A   Clear
1:35 AM 39.2 °F 33.6 °F 37.4 °F 93% 30.25 in 10.0 mi SSE 8.1 mph - N/A   Clear
1:55 AM 41.0 °F 38.0 °F 39.2 °F 93% 30.26 in 10.0 mi SSE 4.6 mph - N/A   Clear
2:15 AM 41.0 °F 37.1 °F 39.2 °F 93% 30.26 in 10.0 mi SE 5.8 mph - N/A   Clear
2:35 AM 41.0 °F 37.1 °F 39.2 °F 93% 30.27 in 10.0 mi SE 5.8 mph - N/A   Clear
2:55 AM 39.2 °F 35.9 °F 39.2 °F 100% 30.27 in 10.0 mi SE 4.6 mph - N/A   Clear
3:15 AM 39.2 °F 34.2 °F 39.2 °F 100% 30.27 in 10.0 mi SE 6.9 mph - N/A   Clear
3:55 AM 39.2 °F 35.0 °F 39.2 °F 100% 30.26 in 10.0 mi SE 5.8 mph - N/A   Partly Cloudy
4:15 AM 41.0 °F 39.0 °F 39.2 °F 93% 30.26 in 10.0 mi SE 3.5 mph - N/A   Clear
4:35 AM 39.2 °F 35.9 °F 37.4 °F 93% 30.26 in 10.0 mi SE 4.6 mph - N/A   Clear
4:55 AM 39.2 °F 35.0 °F 39.2 °F 100% 30.25 in 10.0 mi SE 5.8 mph - N/A   Clear
5:15 AM 39.2 °F 34.2 °F 37.4 °F 93% 30.25 in 10.0 mi SE 6.9 mph - N/A   Clear
5:35 AM 37.4 °F 34.9 °F 35.6 °F 93% 30.26 in 10.0 mi SSE 3.5 mph - N/A   Clear
5:55 AM 39.2 °F - 37.4 °F 93% 30.26 in 10.0 mi Calm Calm - N/A   Clear
6:15 AM 39.2 °F 37.0 °F 37.4 °F 93% 30.26 in 10.0 mi SE 3.5 mph - N/A   Partly Cloudy
6:35 AM 39.2 °F - 37.4 °F 93% 30.26 in 10.0 mi Calm Calm - N/A   Partly Cloudy
6:55 AM 39.2 °F - 39.2 °F 100% 30.26 in 10.0 mi Calm Calm - N/A   Mostly Cloudy
7:15 AM 37.4 °F 34.9 °F 35.6 °F 93% 30.27 in 0.5 mi SSE 3.5 mph - N/A   Overcast
7:35 AM 39.2 °F 35.9 °F 37.4 °F 93% 30.27 in 0.2 mi SSE 4.6 mph - N/A   Overcast
7:55 AM 39.2 °F 34.2 °F 39.2 °F 100% 30.26 in 0.5 mi SSE 6.9 mph - N/A   Overcast
8:15 AM 41.0 °F 36.4 °F 39.2 °F 93% 30.26 in 0.5 mi SSE 6.9 mph - N/A   Overcast
8:35 AM 41.0 °F 36.4 °F 39.2 °F 93% 30.26 in 10.0 mi SSE 6.9 mph - N/A   Scattered Clouds
9:15 AM 44.6 °F 42.2 °F 42.8 °F 93% 30.27 in 10.0 mi ESE 4.6 mph - N/A   Clear
9:35 AM 46.4 °F 45.2 °F 44.6 °F 93% 30.27 in 10.0 mi NNE 3.5 mph - N/A   Clear
9:55 AM 48.2 °F - 44.6 °F 87% 30.27 in 2.0 mi NNE 3.5 mph - N/A   Clear
10:15 AM 50.0 °F - 46.4 °F 87% 30.26 in 10.0 mi Calm Calm - N/A   Clear
10:35 AM 50.0 °F - 46.4 °F 87% 30.26 in 10.0 mi Calm Calm - N/A   Clear
10:55 AM 53.6 °F - 46.4 °F 77% 30.27 in 10.0 mi West 4.6 mph - N/A   Clear
11:15 AM 53.6 °F - 48.2 °F 82% 30.26 in 10.0 mi West 4.6 mph - N/A   Clear
11:35 AM 55.4 °F - 46.4 °F 72% 30.26 in 10.0 mi NNW 4.6 mph - N/A   Clear
11:55 AM 55.4 °F - 46.4 °F 72% 30.25 in 10.0 mi Calm Calm - N/A   Clear
12:15 PM 59.0 °F - 46.4 °F 63% 30.24 in 10.0 mi NNW 3.5 mph - N/A   Clear
12:35 PM - - - N/A% 30.24 in 10.0 mi North 10.4 mph - N/A   Clear
12:55 PM - - - N/A% 30.23 in 10.0 mi North 15.0 mph - N/A   Clear
1:15 PM - - - N/A% 30.23 in 10.0 mi North 13.8 mph - N/A   Clear
1:35 PM - - - N/A% 30.22 in 10.0 mi North 19.6 mph - N/A   Clear
1:55 PM - - - N/A% 30.21 in 10.0 mi North 23.0 mph - N/A   Clear
2:15 PM - - - N/A% 30.21 in 10.0 mi North 20.7 mph 26.5 mph N/A   Clear
2:35 PM - - - N/A% 30.20 in 10.0 mi North 17.3 mph - N/A   Clear
2:55 PM - - - N/A% 30.19 in 10.0 mi North 18.4 mph - N/A   Clear
3:15 PM - - - N/A% 30.19 in 10.0 mi North 19.6 mph - N/A   Clear
3:35 PM - - - N/A% 30.18 in 10.0 mi North 19.6 mph - N/A   Clear
3:55 PM - - - N/A% 30.18 in 10.0 mi North 24.2 mph 29.9 mph N/A   Clear
4:15 PM - - - N/A% 30.18 in 10.0 mi North 19.6 mph - N/A   Clear
4:35 PM - - - N/A% 30.18 in 10.0 mi North 20.7 mph - N/A   Clear
4:55 PM 57.2 °F - 46.4 °F 67% 30.18 in 10.0 mi North 16.1 mph - N/A   Clear
5:15 PM 57.2 °F - 44.6 °F 63% 30.18 in 10.0 mi North 18.4 mph - N/A   Clear
5:35 PM 55.4 °F - 46.4 °F 72% 30.18 in 10.0 mi North 15.0 mph - N/A   Clear
5:55 PM 55.4 °F - 46.4 °F 72% 30.18 in 10.0 mi North 12.7 mph - N/A   Clear
6:15 PM 53.6 °F - 46.4 °F 77% 30.18 in 10.0 mi NNW 15.0 mph - N/A   Clear
6:35 PM 53.6 °F - 44.6 °F 72% 30.18 in 10.0 mi North 13.8 mph - N/A   Clear
6:55 PM 53.6 °F - 44.6 °F 72% 30.18 in 10.0 mi North 12.7 mph - N/A   Clear
7:15 PM 51.8 °F - 44.6 °F 76% 30.18 in 10.0 mi North 11.5 mph - N/A   Clear
7:35 PM 51.8 °F - 44.6 °F 76% 30.18 in 10.0 mi North 10.4 mph - N/A   Clear
7:55 PM 51.8 °F - 44.6 °F 76% 30.18 in 10.0 mi NNE 5.8 mph - N/A   Clear
8:15 PM 51.8 °F - 44.6 °F 76% 30.18 in 10.0 mi North 6.9 mph - N/A   Clear
8:35 PM 50.0 °F - 44.6 °F 82% 30.18 in 10.0 mi Calm Calm - N/A   Clear
8:55 PM 50.0 °F - 44.6 °F 82% 30.18 in 10.0 mi North 3.5 mph - N/A   Clear
9:15 PM 48.2 °F - 44.6 °F 87% 30.18 in 10.0 mi Calm Calm - N/A   Clear
9:35 PM 46.4 °F - 42.8 °F 87% 30.18 in 10.0 mi Calm Calm - N/A   Clear
9:55 PM 46.4 °F - 44.6 °F 93% 30.18 in 10.0 mi Calm Calm - N/A   Clear
10:15 PM 46.4 °F - 44.6 °F 93% 30.18 in 10.0 mi Calm Calm - N/A   Clear
10:35 PM 48.2 °F - 44.6 °F 87% 30.18 in 10.0 mi Calm Calm - N/A   Clear
10:55 PM 46.4 °F - 44.6 °F 93% 30.18 in 10.0 mi Calm Calm - N/A   Clear
11:15 PM 44.6 °F - 42.8 °F 93% 30.18 in 10.0 mi Calm Calm - N/A   Clear
11:35 PM 46.4 °F - 42.8 °F 87% 30.17 in 10.0 mi Calm Calm - N/A   Clear
11:55 PM 44.6 °F 42.2 °F 44.6 °F 100% 30.17 in 9.0 mi North 4.6 mph - N/A   Clear